map of ESL home
ESL - Airport
Location
City:  Elista, Kalmykiya, Russian Federation (Russia)
Name:Elista International Airport
ICAO:URWI
IATA:ESL

Details
Type:Airport (Aerodrome, Airfield)
Use:Public/Civil, International (customs port of entry)
Latitude:4622'29"N (46.374722)
Longitude:4419'26"E (44.323889)
Elevation:502 ft (153 m)
Variation:8.38E (WMM2015v2 magnetic declination)
0.10 annual change
Runways:1
Longest:10499 × 148 ft (3200 × 45 m), paved

Time
Time Zone:UTC+3 (DST+4)

Weather
METAR:URWI 041400Z 13003MPS CAVOK M01/M03 Q1031 R27/010060 NOSIG

Related Locations
Nearby:
Farthest:GMR: 10824 mi / 17419 km
Mangareva [Totegegie], Gambier Islands, PF

Find:

   beyond  
but within

Other Information
Maps:
NOTAMs:
Links:
Sources:

  
  • flag of Russian Federation (Russia)
  • flag of Kalmykiya
  

Airport Diagram

Airport diagram for ESL

Airport diagram PDF from AIP of the Russian Federation

Sectional Chart

Flight Planning
at skyvector.com

Satellite Image

Google Maps Satellite view

Yandex Maps Satellite view


 

Copyright © 2004-2019 Karl L. Swartz. All rights reserved.
The Great Circle Mapper name and logo are trademarks of the Great Circle Mapper.
All other trademarks mentioned herein belong to their respective owners.
Please see credits for attibutions and further copyright information.

  Follow gcmap on Facebook Follow gcmap on Twitter GCmap on LinkedIn

hCard Microformat

Geo Microformat